When you browse on this site, cookies collect data to enhance your experience and personalize the content and advertising you see.
Visit our Privacy Policy to learn more. By continuing to use the site, you agree to this use of cookies and data.
EN

Hourly Weather Pykivs'ka Slobidka

Today, 9 July, Thursday

Time Temperature Precipitation Wind Pressure Humidity
00:00 +12°C° 0 mm 2 mps 734 mmHg 89%
01:00 +12°C° 0 mm 2 mps 734 mmHg 89%
02:00 +10°C° 0 mm 2 mps 734 mmHg 89%
03:00 +12°C° 0 mm 2 mps 734 mmHg 88%
04:00 +12°C° 0 mm 2 mps 734 mmHg 88%
05:00 +12°C° 0 mm 2 mps 734 mmHg 88%
06:00 +13°C° 0 mm 2 mps 734 mmHg 85%
07:00 +14°C° 0 mm 2 mps 735 mmHg 82%
08:00 +16°C° 0 mm 2 mps 735 mmHg 75%
09:00 +15°C° 0.1 mm 2 mps 736 mmHg 78%
10:00 +15°C° 0.1 mm 2 mps 736 mmHg 82%
11:00 +14°C° 0.1 mm 2 mps 736 mmHg 85%
12:00 +16°C° 0 mm 2 mps 736 mmHg 81%
13:00 +17°C° 0 mm 2 mps 736 mmHg 77%
14:00 +19°C° 0 mm 3 mps 736 mmHg 72%
15:00 +19°C° 0 mm 3 mps 736 mmHg 71%
16:00 +19°C° 0 mm 2 mps 736 mmHg 70%
17:00 +20°C° 0 mm 2 mps 736 mmHg 68%
18:00 +18°C° 0 mm 2 mps 736 mmHg 74%
19:00 +18°C° 0 mm 1 mps 736 mmHg 79%
20:00 +15°C° 0 mm 0 mps 735 mmHg 84%
21:00 +15°C° 0 mm 1 mps 736 mmHg 85%
22:00 +14°C° 0 mm 1 mps 736 mmHg 86%
23:00 +14°C° 0 mm 1 mps 736 mmHg 87%

Tomorrow, 10 July, Friday

Time Temperature Precipitation Wind Pressure Humidity
00:00 +14°C° 0 mm 1 mps 736 mmHg 88%
01:00 +13°C° 0 mm 1 mps 736 mmHg 89%
02:00 +13°C° 0 mm 1 mps 736 mmHg 90%
03:00 +13°C° 0 mm 2 mps 736 mmHg 91%
04:00 +13°C° 0 mm 2 mps 736 mmHg 92%
05:00 +13°C° 0 mm 2 mps 736 mmHg 93%
06:00 +15°C° 0 mm 2 mps 736 mmHg 87%
07:00 +17°C° 0 mm 3 mps 736 mmHg 82%
08:00 +19°C° 0 mm 3 mps 736 mmHg 76%
09:00 +21°C° 0 mm 3 mps 736 mmHg 72%
10:00 +22°C° 0 mm 3 mps 736 mmHg 67%
11:00 +25°C° 0 mm 4 mps 736 mmHg 63%
12:00 +26°C° 0 mm 4 mps 736 mmHg 61%
13:00 +26°C° 0 mm 4 mps 736 mmHg 60%
14:00 +27°C° 0 mm 4 mps 736 mmHg 59%
15:00 +27°C° 0 mm 4 mps 736 mmHg 61%
16:00 +27°C° 0 mm 3 mps 735 mmHg 62%
17:00 +27°C° 0 mm 3 mps 735 mmHg 63%
18:00 +25°C° 0 mm 3 mps 735 mmHg 68%
19:00 +24°C° 0 mm 2 mps 735 mmHg 73%
20:00 +21°C° 0 mm 2 mps 735 mmHg 79%
21:00 +20°C° 0 mm 2 mps 735 mmHg 81%
22:00 +20°C° 0 mm 2 mps 735 mmHg 84%
23:00 +19°C° 0 mm 2 mps 735 mmHg 86%

Day after tomorrow, 11 July, Saturday

Time Temperature Precipitation Wind Pressure Humidity
00:00 +18°C° 0 mm 2 mps 735 mmHg 87%
01:00 +18°C° 0 mm 3 mps 735 mmHg 88%
02:00 +17°C° 0 mm 3 mps 735 mmHg 89%
03:00 +17°C° 0 mm 3 mps 735 mmHg 88%
04:00 +17°C° 0 mm 3 mps 735 mmHg 88%
05:00 +17°C° 0 mm 3 mps 735 mmHg 87%
06:00 +18°C° 0 mm 3 mps 735 mmHg 82%
07:00 +20°C° 0 mm 4 mps 735 mmHg 77%
08:00 +22°C° 0 mm 4 mps 736 mmHg 72%
09:00 +23°C° 0 mm 4 mps 736 mmHg 69%
10:00 +26°C° 0 mm 5 mps 736 mmHg 65%
11:00 +27°C° 0 mm 5 mps 736 mmHg 61%
12:00 +27°C° 0 mm 5 mps 736 mmHg 60%
13:00 +28°C° 0 mm 5 mps 735 mmHg 59%
14:00 +28°C° 0 mm 5 mps 735 mmHg 58%
15:00 +28°C° 0 mm 5 mps 735 mmHg 60%
16:00 +28°C° 0 mm 4 mps 735 mmHg 62%
17:00 +27°C° 0 mm 4 mps 734 mmHg 64%
18:00 +26°C° 0 mm 4 mps 734 mmHg 68%
19:00 +24°C° 0 mm 3 mps 734 mmHg 73%
20:00 +22°C° 0 mm 3 mps 734 mmHg 77%
21:00 +21°C° 0 mm 3 mps 734 mmHg 79%
22:00 +20°C° 0 mm 3 mps 734 mmHg 80%
23:00 +19°C° 0 mm 3 mps 734 mmHg 81%

12 July, Sunday

Time Temperature Precipitation Wind Pressure Humidity
00:00 +19°C° 0 mm 3 mps 734 mmHg 82%
01:00 +18°C° 0 mm 3 mps 734 mmHg 82%
02:00 +18°C° 0 mm 2 mps 733 mmHg 83%
03:00 +17°C° 0 mm 2 mps 733 mmHg 83%
04:00 +17°C° 0 mm 2 mps 733 mmHg 83%
05:00 +17°C° 0 mm 2 mps 733 mmHg 84%
06:00 +19°C° 0 mm 2 mps 733 mmHg 78%
07:00 +20°C° 0 mm 2 mps 733 mmHg 73%
08:00 +23°C° 0 mm 2 mps 733 mmHg 68%
09:00 +24°C° 0 mm 2 mps 733 mmHg 65%
10:00 +25°C° 0 mm 2 mps 733 mmHg 62%
11:00 +26°C° 0 mm 2 mps 733 mmHg 58%
12:00 +27°C° 0.1 mm 2 mps 733 mmHg 58%
13:00 +27°C° 0.1 mm 2 mps 733 mmHg 57%
14:00 +27°C° 0.1 mm 2 mps 732 mmHg 56%
15:00 +27°C° 0.1 mm 2 mps 732 mmHg 58%
16:00 +27°C° 0.1 mm 3 mps 732 mmHg 59%
17:00 +27°C° 0.1 mm 3 mps 731 mmHg 61%
18:00 +25°C° 0.1 mm 2 mps 731 mmHg 67%
19:00 +24°C° 0.1 mm 2 mps 731 mmHg 72%
20:00 +21°C° 0.1 mm 2 mps 731 mmHg 77%
21:00 +20°C° 0.2 mm 2 mps 731 mmHg 80%
22:00 +19°C° 0.2 mm 2 mps 731 mmHg 83%
23:00 +18°C° 0.2 mm 2 mps 731 mmHg 86%

13 July, Monday

Time Temperature Precipitation Wind Pressure Humidity
00:00 +18°C° 0.3 mm 3 mps 731 mmHg 89%
01:00 +17°C° 0.3 mm 4 mps 731 mmHg 93%
02:00 +15°C° 0.3 mm 5 mps 731 mmHg 96%
03:00 +14°C° 1.9 mm 5 mps 731 mmHg 96%
04:00 +13°C° 1.9 mm 6 mps 731 mmHg 96%
05:00 +11°C° 1.9 mm 6 mps 731 mmHg 96%
06:00 +11°C° 2.4 mm 6 mps 731 mmHg 95%
07:00 +11°C° 2.4 mm 6 mps 731 mmHg 95%
08:00 +11°C° 2.4 mm 6 mps 731 mmHg 94%
09:00 +11°C° 0.2 mm 6 mps 731 mmHg 92%
10:00 +13°C° 0.2 mm 5 mps 732 mmHg 91%
11:00 +13°C° 0.2 mm 5 mps 732 mmHg 89%
12:00 +13°C° 0 mm 6 mps 732 mmHg 87%
13:00 +14°C° 0 mm 6 mps 732 mmHg 86%
14:00 +14°C° 0 mm 6 mps 732 mmHg 84%
15:00 +14°C° 0 mm 6 mps 732 mmHg 82%
16:00 +14°C° 0 mm 6 mps 731 mmHg 80%
17:00 +14°C° 0 mm 6 mps 731 mmHg 78%
18:00 +14°C° 0 mm 6 mps 731 mmHg 79%
19:00 +13°C° 0 mm 5 mps 731 mmHg 80%
20:00 +12°C° 0 mm 4 mps 731 mmHg 81%
21:00 +12°C° 0 mm 4 mps 731 mmHg 83%
22:00 +11°C° 0 mm 4 mps 731 mmHg 85%
23:00 +11°C° 0 mm 4 mps 731 mmHg 86%

14 July, Tuesday

Time Temperature Precipitation Wind Pressure Humidity
00:00 +10°C° 0 mm 4 mps 730 mmHg 89%
01:00 +8°C° 0 mm 4 mps 730 mmHg 91%
02:00 +8°C° 0 mm 4 mps 730 mmHg 94%
03:00 +8°C° 0 mm 4 mps 730 mmHg 94%
04:00 +8°C° 0 mm 4 mps 729 mmHg 94%
05:00 +8°C° 0 mm 4 mps 729 mmHg 94%
06:00 +10°C° 0 mm 4 mps 729 mmHg 92%
07:00 +10°C° 0 mm 5 mps 729 mmHg 89%
08:00 +12°C° 0 mm 5 mps 729 mmHg 86%
09:00 +11°C° 0.1 mm 6 mps 729 mmHg 86%
10:00 +11°C° 0.1 mm 6 mps 729 mmHg 86%
11:00 +11°C° 0.1 mm 7 mps 729 mmHg 86%
12:00 +11°C° 0.3 mm 7 mps 729 mmHg 88%
13:00 +11°C° 0.3 mm 7 mps 729 mmHg 89%
14:00 +11°C° 0.3 mm 7 mps 729 mmHg 90%
15:00 +11°C° 0.3 mm 7 mps 729 mmHg 90%
16:00 +11°C° 0.3 mm 7 mps 729 mmHg 90%
17:00 +12°C° 0.3 mm 7 mps 729 mmHg 91%
18:00 +12°C° 0.2 mm 7 mps 729 mmHg 92%
19:00 +12°C° 0.2 mm 7 mps 729 mmHg 92%
20:00 +11°C° 0.2 mm 7 mps 729 mmHg 93%
21:00 +12°C° 0 mm 7 mps 729 mmHg 93%
22:00 +13°C° 0 mm 6 mps 729 mmHg 93%
23:00 +13°C° 0 mm 6 mps 729 mmHg 92%
Show more